User: anonymous
Location: Unspecified
(0.0000°N, 0.0000°E)
Time: 22:50:14
(UTC+00:00)
Language:

USA 207 - Orbit

View from above orbital plane
View from above orbital plane
View from above satellite
View from above satellite

Ground track
Ground track

The orbit data is extracted from the following two-line orbital elements,

1 35815U 09047A   14291.70406108 0.00000000  00000-0  00000-0 0    08
2 35815   0.0460 328.1387 0008154 359.6314   0.3774  1.00270000    06
Epoch (UTC): 18 October 2014 16:53:50
Eccentricity: 0.0008154
inclination: 0.0460°
perigee height: 35752 km
apogee height: 35821 km
right ascension of ascending node: 328.1387°
argument of perigee: 359.6314°
revolutions per day: 1.00270000
mean anomaly at epoch: 0.3774°
orbit number at epoch: 0

The dashed part of the orbit path shows where the satellite is in the earth's shadow,  

DLR